Location: Laan Hart van Zuid
(52.2563°N, 6.7904°E)
Time: 11:08:40
(UTC+02:00)

ISS - Pass Details

Date: 18 May 2024
Orbit: 411 x 419 km, 51.6° (Epoch: 29 May)

Event Time Altitude Azimuth Distance (km) Brightness Sun altitude
Rises 00:03:38 0° 279° (W) 2,373 0.5 -15.8°
Reaches altitude 10° 00:05:45 10° 276° (W) 1,505 -0.6 -15.9°
Maximum altitude 00:09:05 59° 196° (SSW) 488 -3.8 -16.0°
Enters shadow 00:10:03 40° 137° (SE) 637 -3.3 -16.1°
